Regional Weather Roundup
Issued by NWS

Home | Current Version | Previous Version | Text Only | Print | Product List | Glossary On
Versions: 1 2 3 4 5 6 7 8 9 10 11 12 13 14 15 16 17 18 19 20 21 22 23 24 25 26 27
000
ASUS44 KLIX 221114
RWRLA
LOUISIANA WEATHER ROUNDUP
NATIONAL WEATHER SERVICE NEW ORLEANS LA
600 AM CDT TUE AUG 22 2017

NOTE: "FAIR" INDICATES FEW OR NO CLOUDS BELOW 12,000 FEET WITH NO
      SIGNIFICANT WEATHER AND/OR OBSTRUCTIONS TO VISIBILITY.
      SKY/WX - SKY CONDITION AND SIGNIFICANT WEATHER.
      TMP - AIR TEMPERATURE.    DP   - DEWPOINT TEMPERATURE.
      RH  - RELATIVE HUMIDITY.  PRES - PRESSURE.
      HX  - HEAT INDEX.         WCI  - WIND CHILL INDEX.

*  THESE STATIONS ARE NOT NWS OR FAA STATIONS AND ARE NOT UNDER
   NWS QUALITY CONTROL.

LAZ040-048-061>063-065-066-069-221200-
SOUTHEAST LOUISIANA

CITY           SKY/WX    TMP DP  RH WIND       PRES   REMARKS
N.O. INTL ARPT PTCLDY    76  75  97 CALM      30.04R
N.O. LAKEFRONT CLEAR     83  77  82 CALM      30.04S
N.O. DOWNTOWN* FAIR      81  76  84 NE5       30.05S
RESERVE*       FAIR      78  76  93 CALM      30.05R FOG
SLIDELL        CLEAR     73  71  93 N3        30.04S
BATON ROUGE    CLEAR     73  71  93 NE3       30.05R
BOOTHVILLE     PTCLDY    81  78  91 CALM      30.04
BELLE CHASSE   PTCLDY    79  74  85 CALM      30.04
BOGALUSA*      FAIR      73  70  89 CALM      30.08R
GALLIANO*      MOSUNNY   75  73  92 CALM      30.03S FOG
NEW ROADS*     FAIR      73  72  97 CALM      30.05S
GONZALES*      FAIR      74  73  98 CALM      30.04S
HAMMOND*       CLEAR     72  70  94 CALM      30.05S
HOUMA*         CLEAR     75  75 100 CALM      30.03
PORT FOURCHON* MOSUNNY   84  75  74 NE5       30.02S

$$

LAZ041-044-053-054-221200-
SOUTHWEST LOUISIANA

CITY           SKY/WX    TMP DP  RH WIND       PRES   REMARKS
LAKE CHARLES   CLEAR     77  74  90 NE3       30.02S
LAFAYETTE      CLEAR     75  75 100 CALM      30.04S
PATTERSON      PTCLDY    76  75  97 NE5       30.05R
SALT POINT       N/A     76  75  97 CALM      30.02R
NEW IBERIA     CLEAR     75  72  90 CALM      30.04S
CHENAULT AIRPK CLEAR     75  73  94 CALM      30.03S

$$

LAZ027-028-221200-
CENTRAL LOUISIANA

CITY           SKY/WX    TMP DP  RH WIND       PRES   REMARKS
FORT POLK      CLEAR     74  73  96 CALM      30.04S
ALEXANDRIA INT CLEAR     72  71  97 CALM      30.03S
ALEXANDRIA     CLEAR     71  71 100 CALM      30.05R FOG

$$

LAZ001-002-221200-
NORTHWEST LOUISIANA

CITY           SKY/WX    TMP DP  RH WIND       PRES   REMARKS
SHREVEPORT     CLEAR     74  74 100 SE5       30.04R
BARKSDALE AFB  CLEAR     73  73 100 SE6       30.04R
DTN SHREVEPORT CLEAR     78  73  84 CALM      30.04S

$$

LAZ014-016-221200-
NORTHEAST LOUISIANA

CITY           SKY/WX    TMP DP  RH WIND       PRES   REMARKS
MONROE         CLEAR     74  72  93 CALM      30.05S
TALLULAH       NOT AVBL

$$





USA.gov is the U.S. government's official web portal to all federal, state and local government web resources and services.